Regional Weather Roundup
Issued by NWS

Home | Current Version | Previous Version | Graphics & Text | Print | Product List | Glossary On
Versions: 1 2 3 4 5 6 7 8 9 10 11 12 13 14 15 16 17 18 19 20 21 22 23 24 25 26 27 28 29 30 31 32 33 34 35 36 37 38 39 40 41 42 43 44 45 46 47 48 49 50
068
ASUS43 KFSD 080802
RWRSD

WEATHER ROUNDUP FOR SOUTH DAKOTA
NATIONAL WEATHER SERVICE SIOUX FALLS SD
200 AM CST THU DEC 08 2016

NOTE: "FAIR" INDICATES FEW OR NO CLOUDS BELOW 12,000 FEET WITH NO
SIGNIFICANT WEATHER AND/OR OBSTRUCTIONS TO VISIBILITY.


SDZ001>005-009-010-012>017-080900-
NORTHWEST AND NORTH CENTRAL SOUTH DAKOTA

CITY           SKY/WX    TMP DP  RH WIND       PRES   REMARKS
BUFFALO          N/A     -1  -6  79 W15       30.42F WCI -21
FAITH            N/A      0  -5  79 NW18      30.50R WCI -21
MOBRIDGE       CLOUDY     6  -3  66 NW18G32   30.48R WCI -13
$$

SDZ012>016-024>037-041>051-057-063-072>074-080900-
SOUTHWEST AND SOUTH CENTRAL SOUTH DAKOTA

CITY           SKY/WX    TMP DP  RH WIND       PRES   REMARKS
RAPID CTY ARPT CLEAR      2  -6  69 N15       30.50R WCI -17
PIERRE         MOCLDY     8   0  69 NW25      30.52R WCI -13
CUSTER         CLEAR     -5 -13  68 N3        30.26F
ELLSWORTH AFB  CLEAR      2  -6  67 N15       30.48S WCI -16
PHILIP         CLEAR      3  -4  72 NW15      30.55S WCI -16
PINE RIDGE     CLOUDY   -13 -17  82 CALM      30.51R
SPEARFISH      FAIR      -2  -9  71 W8        30.46S WCI -17
WINNER         PTSUNNY    7  -2  66 NW16      30.52R WCI -11
$$

SDZ004>011-016>023-039-040-080900-
NORTHEAST SOUTH DAKOTA

CITY           SKY/WX    TMP DP  RH WIND       PRES   REMARKS
ABERDEEN       LGT SNOW  10   3  73 NW20      30.43R WCI  -9
WATERTOWN      CLOUDY     8   4  83 NW21G29   30.32R FOG     WCI -12
SISSETON         N/A     14   8  77 NW26G39   30.31R WCI  -6
$$

SDZ017-020-022-023-036>040-048>070-080900-
SOUTHEAST SOUTH DAKOTA

CITY           SKY/WX    TMP DP  RH WIND       PRES   REMARKS
SIOUX FALLS    CLOUDY     8   3  80 NW23G31   30.39R WCI -13
HURON          FLURRIES   7   2  80 NW25G32   30.46R WCI -15
CHAMBERLAIN    PTCLDY     8   3  78 NW16      30.51F WCI -10
MITCHELL       CLEAR      8   1  73 NW18      30.50R WCI -11
YANKTON        PTCLDY   N/A N/A N/A NW25G32   30.46S
$$

ABBREVIATIONS USED IN REMARKS
   TC - TEMPERATURE IN CELSIUS
  WCI - WIND CHILL INDEX
   HX - HEAT INDEX
  VSB - VISIBILITY





USA.gov is the U.S. government's official web portal to all federal, state and local government web resources and services.